Wetbulb
58.74 58.27 62.79 67.26 68.35 68.37 67.88 68.12 68.42 69.40 70.08 70.66 70.77 70.89 70.78 70.76 70.62 70.64 70.46 70.18 70.36 70.52 71.02 70.34 69.79 69.70 70.25 69.89 70.33 70.90 70.96 70.86 70.64 70.57 70.55 70.90 71.32 71.66 71.71 71.57 70.55 67.91 71.03
56.58 58.38 62.84 67.71 68.58 68.56 67.89 68.31 68.09 68.43 69.86 70.38 70.35 69.97 70.08 69.68 69.22 69.13 69.33 69.59 69.84 70.18 70.03 69.88 68.86 68.69 68.93 69.00 69.56 69.24 68.98 69.76 68.95 68.52 68.62 69.32 70.21 70.81 71.26 70.95 71.31 69.99 70.52
56.71 58.25 64.60 68.53 68.38 68.65 68.00 69.63 69.22 69.54 69.49 69.25 69.15 68.97 68.16 67.76 67.60 67.64 67.82 67.90 68.15 68.14 68.10 67.48 67.04 66.93 67.50 67.51 67.73 68.58 68.25 67.93 67.41 67.03 66.51 63.39 65.64 70.23 70.68 70.45 70.54 70.80 70.99
56.72 61.21 66.03 67.99 68.84 68.63 69.59 70.23 70.29 69.38 68.61 68.08 67.58 66.98 66.74 66.58 66.34 66.18 65.96 65.61 65.65 65.79 65.53 65.21 65.01 65.44 65.43 65.30 65.99 67.86 68.15 68.08 67.30 65.86 64.32 65.00 65.12 68.86 68.80 69.06 69.99 70.53 70.57
59.13 62.18 65.27 67.31 67.65 67.88 67.81 68.13 67.94 67.43 67.21 66.45 65.80 65.47 65.23 65.00 64.88 64.45 64.18 63.82 63.55 63.67 63.25 63.18 63.13 63.38 63.43 63.37 63.13 64.51 65.45 64.18 61.38 58.41 56.71 62.47 65.21 69.08 69.64 69.11 68.50 68.99 69.80
58.49 60.02 64.81 66.23 66.64 66.81 66.84 66.92 66.66 66.37 65.79 65.05 64.60 64.20 63.92 63.53 63.30 62.85 62.40 62.14 61.78 61.50 61.45 61.53 61.46 61.38 61.16 61.08 60.87 60.11 59.91 58.31 56.03 50.49 52.43 56.72 64.15 68.37 68.05 67.62 68.13 68.44 68.38
56.80 58.78 61.91 64.66 65.28 64.84 65.09 65.20 65.08 64.80 64.39 63.84 63.43 62.99 62.65 62.27 61.94 61.46 61.01 60.50 60.26 59.89 59.63 59.64 59.72 59.52 59.07 58.67 58.14 57.14 54.56 52.08 43.48 45.91 48.93 52.10 60.40 65.45 65.55 64.89 65.45 66.47 67.08
54.35 56.69 58.37 62.62 62.78 63.56 63.33 63.37 63.43 63.12 62.61 62.10 61.78 61.51 61.19 60.82 60.29 59.96 59.48 59.14 58.50 58.21 57.68 57.22 57.36 57.33 57.08 56.36 55.17 54.20 52.28 48.34 41.65 42.33 46.59 50.40 60.72 63.17 63.14 62.63 62.63 63.27 64.12
52.31 52.71 53.48 53.73 59.33 61.17 61.41 61.39 60.79 60.64 60.32 59.94 59.60 59.19 58.71 58.35 57.82 58.00 57.55 57.32 56.80 56.17 55.48 54.81 54.31 54.44 54.57 53.99 52.49 50.90 49.55 47.35 36.36 39.25 45.09 48.69 58.57 60.98 60.96 60.55 60.81 61.24 61.74
49.52 50.43 50.00 48.15 49.00 50.21 53.39 58.82 57.81 57.24 57.30 56.75 56.57 55.49 54.58 54.03 53.56 53.70 53.86 54.45 54.55 54.10 53.40 52.68 51.43 50.46 50.86 51.01 49.96 48.09 45.33 43.10 34.09 36.85 40.04 49.35 56.80 58.89 59.17 58.76 58.93 59.50 59.87
45.91 46.73 45.07 44.17 44.93 46.31 47.59 52.14 53.35 54.63 53.68 52.10 50.20 49.25 43.90 40.04 41.23 44.69 50.20 50.93 51.26 51.35 51.12 50.20 49.00 47.16 44.42 45.17 46.67 44.94 41.16 33.36 33.16 34.32 38.09 52.12 55.43 57.04 57.29 57.21 57.55 57.95 58.40
42.33 43.29 42.24 41.23 42.01 41.13 43.27 39.24 38.17 39.73 37.33 36.77 36.49 36.38 36.84 37.45 40.52 42.13 44.29 46.29 45.85 45.84 46.07 46.72 45.65 43.29 38.31 33.36 33.57 37.66 32.59 31.14 32.36 33.33 38.40 51.46 54.20 55.60 55.95 55.96 56.61 56.99 57.50
40.42 41.86 40.76 39.85 38.49 38.30 37.83 35.86 35.71 34.95 34.42 34.16 33.82 34.02 33.53 33.45 32.58 32.08 32.28 32.09 32.06 37.15 32.65 33.24 31.85 32.49 30.99 32.21 31.90 30.88 31.29 31.14 29.68 32.14 40.87 50.48 53.35 55.73 57.75 57.82 58.68 59.50 59.85
39.01 40.23 39.28 38.70 37.14 36.09 36.62 34.61 33.61 33.81 33.32 32.77 32.90 32.73 31.58 31.23 30.24 29.96 30.45 30.42 30.45 30.59 29.81 29.64 29.36 30.51 30.54 31.26 31.48 30.90 30.25 30.23 30.48 31.86 35.10 49.16 51.38 54.72 55.92 56.79 57.03 57.22 57.07
38.80 38.66 38.09 36.93 36.11 36.33 34.64 33.79 33.80 33.30 32.34 32.14 32.02 32.18 31.19 30.03 28.68 29.24 28.89 29.09 29.42 29.95 29.30 28.67 28.91 29.05 29.06 30.04 30.46 30.72 30.11 29.88 30.04 31.60 30.87 46.57 49.14 52.53 53.61 53.75 53.83 53.73 53.71
39.99 38.06 37.29 36.57 36.08 35.79 34.20 33.33 32.40 31.91 31.44 31.16 30.64 31.26 31.31 29.68 28.70 28.66 28.52 28.69 28.47 29.11 29.10 28.90 28.51 27.91 27.68 28.39 28.72 29.12 29.15 29.75 30.22 29.45 30.82 33.38 45.36 47.79 49.19 49.85 50.53 50.64 51.50
40.02 38.37 36.62 36.05 35.78 34.78 33.74 32.67 31.81 32.25 31.60 30.30 29.97 30.58 30.71 30.17 28.73 28.16 27.69 27.74 28.23 28.58 29.04 28.66 28.64 28.19 27.02 28.42 26.60 28.33 29.08 29.10 29.70 29.19 29.93 31.33 33.05 40.65 44.72 46.97 47.15 47.71 48.23
38.68 37.26 36.75 38.36 35.20 33.83 32.90 32.16 32.80 30.99 29.86 29.48 29.47 29.75 30.62 30.48 29.28 27.98 27.66 27.20 27.60 28.24 28.11 27.43 27.12 26.96 26.13 25.78 25.77 26.62 26.68 28.52 28.66 28.17 29.66 30.11 31.63 31.81 35.56 42.66 43.27 43.82 45.23
38.34 37.41 35.92 35.64 34.13 33.57 32.59 33.65 33.22 29.93 29.18 28.72 28.58 28.91 29.89 30.15 29.83 28.26 27.58 27.19 27.68 27.31 26.76 27.51 26.42 25.88 24.38 25.04 27.82 27.08 26.87 27.15 27.30 29.83 27.46 29.04 30.49 30.12 30.61 36.49 38.69 39.13 41.59
37.64 36.75 35.93 35.05 33.55 33.11 34.20 33.69 32.35 31.46 29.01 28.02 27.76 28.45 29.25 28.97 28.79 27.75 27.29 27.35 27.60 26.28 25.66 25.78 24.92 25.73 25.10 24.64 28.52 27.41 26.76 27.16 26.63 26.32 26.32 29.83 28.92 29.25 29.34 29.80 29.57 30.81 37.90
35.68 34.95 34.62 33.62 33.06 33.45 33.12 31.58 30.79 29.30 28.99 26.72 27.82 28.90 28.38 28.34 28.50 27.09 26.56 26.53 26.25 25.54 25.03 26.00 25.30 24.74 24.63 25.17 24.70 25.16 25.44 26.18 25.86 26.31 26.32 26.01 27.06 28.26 28.49 28.83 28.79 28.88 29.66
34.84 34.86 34.18 34.21 33.10 33.48 34.16 33.67 32.33 30.68 29.83 27.05 27.99 28.12 28.65 28.24 28.15 27.75 26.06 25.43 25.14 24.94 24.81 24.09 23.59 24.02 24.73 23.97 23.00 23.58 21.93 24.19 25.90 26.08 25.86 27.47 25.12 27.01 27.81 28.76 27.73 28.29 28.33
34.45 34.35 34.23 34.10 33.28 33.65 34.29 32.61 31.19 30.39 29.80 26.10 25.59 25.96 27.53 28.25 28.34 27.23 26.11 25.38 24.88 24.62 23.95 23.33 23.36 23.34 22.68 23.87 23.41 21.93 21.15 20.08 20.93 24.44 24.05 25.20 25.10 24.95 25.55 26.83 27.94 28.34 28.34
35.46 35.06 34.62 33.76 33.38 33.56 33.18 32.80 30.73 30.64 28.39 26.48 25.38 25.55 26.17 27.73 27.47 27.69 26.47 25.36 24.36 24.12 23.22 23.96 24.77 23.30 23.11 22.22 23.70 25.65 22.38 21.34 19.69 19.02 23.63 24.01 24.94 26.20 24.71 26.00 26.43 27.23 27.74
35.53 33.86 33.43 33.15 32.94 32.71 33.14 33.20 31.63 30.23 29.24 28.51 27.35 24.09 24.26 25.30 26.67 26.38 25.60 24.24 23.43 23.82 22.75 22.70 22.35 21.90 22.85 21.24 22.12 22.28 21.11 22.07 20.85 20.21 18.01 20.28 23.30 23.53 25.46 24.58 25.99 26.16 26.83
32.93 32.11 32.09 31.97 31.96 32.00 33.40 32.73 31.58 29.56 27.37 27.00 25.88 24.89 22.42 22.91 23.95 24.66 25.23 23.30 22.92 22.90 22.80 22.89 22.44 22.01 21.40 21.16 21.84 21.10 20.97 19.73 19.63 18.98 17.32 18.29 18.97 21.74 23.72 25.04 24.21 25.24 25.98
MSLP
1015.36 1015.27 1014.93 1014.43 1014.07 1014.16 1014.25 1014.31 1014.34 1014.54 1014.71 1014.70 1014.70 1014.51 1014.98 1014.90 1015.09 1015.07 1015.29 1015.36 1015.23 1015.17 1015.11 1015.20 1015.48 1015.55 1015.59 1015.54 1015.33 1015.35 1015.31 1015.42 1015.46 1015.54 1015.55 1015.57 1015.47 1015.43 1015.58 1015.61 1015.48 1015.57 1015.45
1015.52 1015.13 1014.69 1013.94 1013.82 1014.00 1014.09 1014.26 1014.45 1014.85 1014.86 1014.80 1015.11 1015.16 1014.97 1015.51 1015.37 1015.60 1015.67 1015.61 1015.66 1015.60 1015.59 1015.78 1016.04 1016.03 1016.01 1015.98 1015.83 1015.83 1015.84 1015.88 1015.89 1016.04 1016.05 1016.04 1015.95 1015.88 1015.91 1015.97 1015.88 1015.88 1015.81
1015.51 1015.01 1014.26 1013.81 1013.55 1013.99 1013.95 1014.01 1014.39 1014.77 1015.05 1015.20 1015.39 1015.45 1015.92 1015.89 1015.90 1016.10 1016.29 1016.24 1016.17 1016.24 1016.29 1016.57 1016.58 1016.48 1016.56 1016.48 1016.31 1016.31 1016.25 1016.37 1016.48 1016.49 1016.49 1016.48 1016.23 1016.14 1016.29 1016.32 1016.28 1016.20 1016.28
1015.59 1015.00 1014.37 1013.97 1013.70 1014.06 1012.81 1012.10 1013.55 1014.67 1015.01 1015.54 1015.67 1016.02 1016.25 1016.27 1016.39 1016.54 1016.78 1016.73 1016.78 1016.74 1016.94 1017.04 1017.01 1016.90 1016.99 1016.90 1016.86 1016.70 1016.84 1016.89 1016.91 1017.00 1017.03 1016.93 1016.69 1016.52 1016.59 1016.64 1016.60 1016.68 1016.71
1015.66 1015.25 1014.81 1014.38 1014.55 1014.00 1013.53 1013.05 1014.18 1014.88 1015.37 1015.94 1016.28 1016.54 1016.67 1016.90 1016.90 1017.10 1017.25 1017.24 1017.22 1017.33 1017.49 1017.43 1017.33 1017.29 1017.40 1017.38 1017.41 1017.43 1017.45 1017.56 1017.55 1017.56 1017.63 1017.42 1017.12 1016.76 1016.86 1016.94 1016.95 1016.92 1016.90
1015.71 1015.47 1015.18 1014.78 1014.92 1014.50 1015.08 1014.83 1014.81 1015.72 1016.17 1016.49 1016.79 1017.09 1017.25 1017.44 1017.33 1017.51 1017.55 1017.50 1017.71 1017.91 1017.96 1017.80 1017.73 1017.74 1017.95 1017.86 1017.84 1017.98 1018.10 1018.12 1018.05 1018.24 1018.05 1017.89 1017.54 1017.33 1017.40 1017.52 1017.52 1017.40 1017.28
1015.92 1015.55 1015.69 1015.32 1015.29 1015.60 1015.64 1015.53 1015.57 1016.14 1016.62 1016.99 1017.29 1017.45 1017.56 1017.74 1017.68 1017.86 1017.92 1018.24 1018.17 1018.33 1018.37 1018.33 1018.35 1018.46 1018.49 1018.33 1018.51 1018.55 1018.72 1018.81 1018.86 1018.72 1018.74 1018.53 1018.15 1017.98 1017.92 1018.04 1017.95 1017.77 1017.70
1016.03 1015.75 1015.64 1015.57 1015.97 1016.20 1016.04 1016.06 1016.30 1016.87 1017.08 1017.48 1017.61 1017.68 1017.77 1018.11 1018.29 1018.46 1018.55 1018.59 1018.73 1018.71 1018.89 1018.97 1018.99 1018.96 1018.93 1018.89 1019.11 1019.17 1019.29 1019.34 1019.41 1019.40 1019.36 1019.10 1018.67 1018.49 1018.40 1018.45 1018.35 1018.15 1018.06
1016.13 1016.07 1015.92 1015.75 1015.97 1016.09 1016.32 1016.59 1016.88 1017.29 1017.37 1017.78 1017.96 1018.25 1018.43 1018.55 1018.94 1018.99 1019.10 1018.98 1019.23 1019.25 1019.46 1019.45 1019.64 1019.54 1019.53 1019.48 1019.65 1019.73 1019.76 1019.83 1020.04 1020.20 1019.92 1019.61 1019.12 1018.85 1018.80 1018.77 1018.74 1018.55 1018.36
1016.58 1016.57 1016.47 1016.27 1016.64 1016.69 1016.87 1017.06 1017.34 1017.72 1018.07 1018.15 1018.24 1018.81 1019.18 1019.30 1019.62 1019.71 1019.68 1019.63 1019.82 1019.88 1020.06 1020.10 1020.20 1020.33 1020.20 1020.19 1020.21 1020.27 1020.34 1020.55 1020.73 1020.64 1020.48 1020.02 1019.50 1019.22 1019.11 1019.02 1018.89 1018.80 1018.63
1017.03 1017.00 1017.11 1017.31 1017.25 1017.36 1017.68 1017.84 1018.12 1018.45 1018.78 1018.87 1019.43 1019.95 1020.23 1020.35 1020.30 1020.37 1020.25 1020.43 1020.47 1020.49 1020.62 1020.65 1020.89 1020.96 1021.10 1020.91 1020.81 1020.83 1020.89 1021.33 1021.34 1021.29 1020.99 1020.30 1019.89 1019.48 1019.35 1019.26 1019.15 1018.94 1018.82
1017.25 1017.42 1017.48 1017.63 1017.83 1018.25 1018.48 1018.93 1019.27 1019.60 1020.02 1020.11 1020.29 1020.60 1020.70 1020.78 1020.82 1021.01 1021.09 1021.29 1021.39 1021.36 1021.35 1021.42 1021.59 1021.65 1021.62 1021.71 1021.62 1021.44 1021.67 1021.73 1021.76 1021.69 1021.38 1020.54 1020.13 1019.93 1019.58 1019.40 1019.21 1019.15 1018.91
1017.05 1017.49 1017.73 1017.91 1018.30 1018.46 1018.94 1019.47 1019.77 1019.92 1020.45 1020.61 1020.63 1020.82 1021.18 1021.47 1021.66 1021.90 1022.24 1022.42 1022.23 1022.22 1022.26 1022.29 1022.36 1022.50 1022.27 1022.09 1022.35 1022.38 1022.12 1022.05 1022.11 1022.02 1021.75 1020.97 1020.34 1019.89 1019.55 1019.59 1019.15 1019.20 1019.06
1016.71 1017.26 1017.46 1017.84 1018.39 1018.69 1019.11 1019.68 1019.90 1020.25 1020.67 1021.02 1021.10 1021.16 1021.58 1021.88 1022.27 1022.55 1022.61 1022.68 1022.79 1022.76 1022.78 1022.82 1022.96 1023.04 1022.73 1022.75 1022.31 1022.59 1022.69 1022.20 1022.10 1022.17 1022.09 1021.39 1020.87 1020.43 1020.32 1020.17 1019.95 1019.92 1019.74
1016.62 1017.00 1017.45 1017.76 1018.27 1018.85 1019.39 1019.81 1020.19 1020.63 1020.92 1021.19 1021.32 1021.47 1022.15 1022.25 1022.71 1022.74 1023.04 1022.98 1023.22 1023.06 1023.15 1023.45 1023.20 1023.28 1023.18 1022.97 1022.90 1022.67 1023.06 1022.74 1022.66 1022.50 1022.55 1021.82 1021.42 1020.90 1021.08 1020.94 1020.76 1020.72 1020.55
1016.05 1016.55 1017.15 1017.82 1018.33 1018.92 1019.59 1020.06 1020.40 1020.80 1021.29 1021.41 1021.56 1021.94 1022.30 1022.38 1022.70 1022.88 1023.08 1023.36 1023.47 1023.45 1023.84 1023.66 1023.69 1023.69 1023.70 1023.79 1023.64 1023.13 1023.44 1023.28 1023.10 1022.95 1022.79 1022.66 1022.26 1022.06 1021.99 1021.82 1021.58 1021.41 1021.14
1015.47 1016.16 1016.86 1017.63 1018.26 1018.72 1019.39 1020.11 1020.58 1020.83 1021.08 1021.57 1021.93 1021.92 1022.35 1022.68 1022.60 1022.99 1023.42 1023.75 1023.92 1023.83 1024.09 1023.95 1023.99 1024.04 1023.82 1024.08 1024.07 1023.71 1023.64 1023.54 1023.50 1023.30 1023.03 1023.10 1023.23 1023.07 1022.72 1022.51 1022.29 1022.11 1021.80
1015.08 1015.82 1016.59 1017.34 1018.00 1018.76 1019.48 1019.85 1020.40 1020.92 1021.25 1021.81 1021.97 1022.31 1022.59 1022.77 1022.90 1023.17 1023.68 1024.05 1024.19 1024.17 1024.36 1024.13 1024.43 1024.33 1024.69 1024.53 1024.49 1024.39 1023.95 1023.70 1023.83 1023.61 1023.48 1023.51 1023.64 1023.76 1023.57 1023.13 1022.95 1022.62 1022.18
1014.43 1015.38 1016.42 1017.08 1017.79 1018.71 1019.48 1020.02 1020.61 1021.24 1021.62 1022.05 1022.09 1022.44 1022.85 1022.99 1023.00 1023.35 1024.09 1024.39 1024.36 1024.68 1024.61 1024.25 1024.82 1024.96 1025.27 1024.71 1024.66 1024.31 1023.90 1024.12 1023.98 1023.82 1023.93 1023.88 1024.02 1024.11 1024.05 1023.80 1023.48 1023.11 1022.65
1014.15 1014.90 1015.78 1016.67 1017.61 1018.58 1019.40 1020.28 1021.03 1021.49 1022.09 1022.17 1022.27 1022.72 1022.98 1023.03 1023.51 1023.83 1024.32 1024.50 1024.43 1024.85 1024.64 1024.49 1024.97 1025.19 1025.48 1025.30 1024.84 1024.24 1024.20 1024.33 1024.15 1024.25 1024.29 1024.22 1024.37 1024.37 1024.24 1024.04 1023.77 1023.57 1023.11
1014.27 1014.97 1015.66 1016.61 1017.55 1018.23 1019.14 1020.01 1021.05 1021.42 1021.89 1022.41 1022.60 1022.69 1023.05 1023.37 1023.64 1024.07 1024.19 1024.41 1024.93 1024.81 1024.87 1024.86 1025.27 1025.74 1025.88 1025.42 1024.85 1024.54 1024.47 1024.40 1024.40 1024.51 1024.50 1024.67 1024.73 1024.52 1024.36 1024.16 1024.05 1023.80 1023.57
1013.36 1014.16 1014.99 1015.66 1016.69 1017.63 1018.36 1019.01 1019.90 1021.02 1022.11 1022.44 1022.76 1023.07 1023.38 1023.60 1023.65 1023.95 1024.43 1024.95 1025.08 1025.23 1025.49 1025.64 1025.88 1026.17 1026.11 1025.68 1025.50 1025.24 1025.10 1024.90 1024.61 1024.65 1024.84 1024.75 1024.94 1024.75 1024.51 1024.26 1024.09 1023.86 1023.66
1012.26 1012.86 1013.95 1015.01 1015.98 1016.89 1017.82 1018.79 1019.81 1021.18 1022.27 1022.87 1023.06 1023.09 1023.19 1023.25 1023.62 1024.19 1024.62 1025.05 1025.56 1025.82 1025.97 1026.14 1026.20 1026.19 1026.30 1026.14 1025.76 1025.62 1025.64 1025.99 1025.90 1025.08 1025.11 1024.93 1024.77 1024.72 1024.54 1024.35 1023.99 1023.85 1023.56
1011.44 1012.61 1013.08 1014.01 1015.13 1016.23 1017.07 1017.88 1018.87 1019.71 1020.73 1021.67 1022.45 1022.98 1023.22 1023.36 1024.02 1024.65 1025.20 1025.62 1025.81 1025.89 1026.03 1026.03 1026.33 1026.43 1026.34 1026.28 1025.92 1026.04 1026.39 1026.76 1027.04 1026.27 1025.14 1024.76 1024.67 1024.67 1024.54 1024.19 1023.84 1023.51 1023.26
1011.43 1012.14 1013.21 1014.05 1014.83 1015.69 1016.58 1017.48 1018.40 1019.45 1020.29 1021.17 1022.31 1023.09 1023.65 1024.14 1024.54 1025.06 1025.42 1025.72 1025.99 1026.06 1026.20 1026.29 1026.47 1026.55 1026.42 1026.37 1026.50 1026.80 1027.10 1027.23 1027.34 1027.27 1026.21 1025.31 1025.03 1024.63 1024.43 1024.22 1023.74 1023.38 1023.08
1011.62 1012.70 1013.47 1014.09 1014.67 1015.38 1016.27 1017.18 1018.11 1019.21 1020.26 1021.30 1022.34 1023.25 1024.08 1024.59 1025.01 1025.25 1025.43 1025.70 1025.93 1026.07 1026.20 1026.36 1026.44 1026.58 1026.64 1026.74 1026.93 1027.15 1027.26 1027.42 1027.27 1027.26 1027.16 1026.09 1025.68 1024.59 1024.19 1023.61 1023.49 1023.16 1022.86
Wind_Speed
2 5 9 14 7 9 8 6 8 8 11 13 16 17 16 19 19 20 18 16 16 18 20 20 19 17 18 18 18 18 17 18 18 17 16 15 14 15 15 15 13 9 16
4 7 14 10 9 10 11 10 11 9 13 17 17 18 20 19 19 18 18 19 19 20 20 21 19 17 17 17 18 17 17 16 17 15 13 11 14 16 15 14 13 12 16
5 9 10 9 7 11 10 16 19 17 17 18 19 20 16 16 18 17 17 17 18 18 19 18 18 18 17 18 18 17 17 18 18 17 16 7 7 18 17 16 15 14 13
6 8 6 16 15 15 6 14 27 24 23 20 18 15 15 17 17 17 16 17 17 17 17 18 18 19 18 19 20 19 19 19 19 18 9 8 7 16 17 17 18 17 14
4 6 7 16 17 17 17 24 24 23 22 18 15 15 16 16 17 17 17 17 17 17 16 17 18 19 19 19 20 20 20 19 19 14 9 8 6 16 20 19 16 16 17
3 5 9 14 16 18 15 20 21 21 19 16 16 15 16 16 17 17 17 18 17 16 17 18 18 19 18 19 20 20 20 18 16 10 10 11 8 19 19 19 18 18 17
2 4 3 14 17 13 15 18 18 18 17 16 16 16 16 16 16 16 17 16 17 17 17 17 18 18 18 19 19 19 19 18 9 9 9 9 9 17 18 17 17 17 16
3 5 4 14 11 16 14 16 18 16 17 15 15 16 16 16 16 16 16 16 16 17 17 17 17 17 18 18 18 18 19 17 11 8 8 7 15 16 16 16 16 16 16
4 4 4 6 7 12 14 15 16 14 17 16 16 16 16 17 15 16 15 16 16 16 16 17 16 17 17 17 17 17 18 19 8 6 8 5 14 14 14 14 14 14 14
4 4 5 6 5 6 5 14 15 14 15 16 17 16 16 17 16 15 15 16 15 16 16 16 16 16 17 17 17 18 18 17 8 7 5 6 13 13 13 13 13 13 13
3 4 5 4 5 6 7 8 12 15 15 16 14 15 12 6 7 9 15 15 16 16 16 17 16 17 16 16 18 18 15 6 6 5 4 13 13 12 12 12 12 12 12
6 4 5 5 6 6 6 6 6 8 5 5 6 6 5 6 8 10 13 16 16 15 17 16 16 16 12 5 5 11 5 6 5 4 4 13 13 12 12 11 11 11 11
5 5 6 6 5 6 5 4 3 3 3 4 6 6 6 6 5 4 4 4 4 11 5 7 7 6 7 5 5 5 5 4 3 3 7 13 13 12 13 12 13 16 16
10 8 7 7 6 6 4 3 4 4 3 3 4 7 5 4 5 4 4 4 4 3 6 5 4 4 6 6 6 6 6 5 4 3 6 15 15 15 14 15 16 16 17
11 9 8 7 7 6 6 4 4 4 4 4 4 6 4 5 5 4 4 4 4 4 5 4 5 5 6 7 6 6 6 6 6 3 3 16 16 16 17 17 17 17 16
12 11 8 7 7 8 6 6 5 4 4 4 4 5 5 5 5 4 4 5 4 5 4 4 4 4 5 5 5 6 5 5 5 6 4 6 18 17 17 16 16 16 16
12 12 11 9 9 8 8 7 5 5 5 5 4 6 6 5 6 6 4 4 4 4 5 4 4 4 5 5 5 4 4 5 4 6 5 4 6 16 17 17 17 18 18
12 14 12 11 11 9 8 6 5 4 4 4 4 4 6 6 6 6 5 4 3 4 3 4 4 4 4 4 3 3 3 4 4 6 5 5 4 6 10 17 19 20 19
14 14 13 11 11 10 8 7 7 6 4 4 4 4 6 6 6 6 4 4 4 3 3 4 4 3 3 4 3 3 4 4 4 5 6 6 6 5 4 12 19 18 18
12 12 12 10 11 11 8 7 5 5 3 3 4 4 6 5 6 5 4 4 4 3 4 4 5 5 3 4 3 4 4 3 4 4 5 5 5 5 4 6 6 8 17
11 13 14 14 12 11 10 9 5 4 4 3 3 6 6 5 6 6 4 5 4 4 5 5 3 5 4 4 1 3 3 3 4 4 3 3 5 4 5 5 4 3 5
16 17 17 17 16 12 10 7 4 5 2 2 3 5 5 6 6 6 6 5 5 4 5 5 4 0 2 4 2 0 3 2 3 3 2 1 4 2 5 6 5 4 5
19 21 18 17 18 14 13 8 7 6 5 3 2 3 4 6 6 6 6 5 5 4 4 3 3 3 2 3 6 3 3 2 3 2 1 2 3 3 4 5 6 6 6
17 14 18 18 19 15 15 12 16 10 9 4 4 3 4 6 6 6 5 5 5 3 4 2 3 2 1 3 2 5 4 2 0 5 3 3 3 8 5 6 6 6 6
14 15 14 15 16 15 15 12 11 9 4 6 5 7 6 5 6 6 5 5 5 3 3 4 3 3 2 2 3 2 2 0 0 2 5 3 5 2 6 4 7 6 6
8 9 11 15 15 15 15 13 12 11 9 9 7 7 4 3 4 5 5 5 4 4 3 3 3 3 2 2 1 1 0 1 1 1 3 4 8 4 4 6 5 5 4
Wind_Direction
35 312 307 292 232 196 171 144 120 130 129 120 111 98 96 88 82 76 75 76 77 78 73 77 67 62 61 60 60 60 73 71 68 64 61 59 62 67 64 59 57 50 55
300 304 301 289 195 192 179 165 149 142 128 109 104 94 81 80 77 70 66 66 64 68 71 68 66 65 62 58 58 58 64 66 61 52 45 43 56 58 58 58 53 55 54
321 312 310 53 206 188 201 179 148 126 105 95 85 80 86 88 86 81 74 70 70 67 68 72 71 67 63 58 58 59 66 65 57 49 40 23 39 53 53 47 45 45 44
316 318 17 70 68 85 344 100 112 103 89 83 84 87 88 85 83 80 79 80 77 78 75 71 67 66 61 58 56 63 66 66 62 49 34 23 20 57 51 44 43 44 37
358 346 59 79 76 67 72 86 85 87 88 93 97 93 89 87 87 85 81 78 75 73 71 70 66 63 59 58 57 58 61 60 55 46 33 20 15 54 54 48 43 39 40
45 10 81 85 82 85 78 86 99 104 105 107 101 99 97 93 89 85 80 78 74 70 66 64 63 62 59 57 56 55 54 55 49 37 31 21 25 50 50 39 35 38 37
53 38 88 89 99 103 103 101 98 104 108 108 109 104 100 91 88 84 81 76 76 71 65 63 62 61 59 58 54 54 52 52 46 43 29 14 24 41 43 37 35 34 29
82 55 18 102 107 116 104 104 108 111 110 109 105 101 97 93 88 86 83 79 72 69 66 64 62 60 59 59 56 54 54 51 39 34 30 18 30 35 38 34 32 30 30
92 65 68 52 89 104 108 116 113 113 111 111 105 96 94 91 87 83 81 77 73 70 65 65 61 61 59 59 58 55 51 50 47 29 21 3 24 33 36 34 29 27 26
108 84 45 59 66 65 79 115 115 114 115 109 101 96 90 86 84 79 69 73 71 70 66 64 62 59 57 55 55 53 51 41 30 25 8 13 23 29 29 27 24 20 21
150 137 115 104 74 69 62 77 110 119 115 106 104 106 87 79 64 58 75 72 69 64 64 61 57 57 55 50 49 49 48 42 30 19 351 22 21 28 31 28 25 22 19
176 174 154 131 110 94 98 75 66 84 62 77 89 82 72 61 74 69 71 72 68 64 60 56 54 49 45 35 32 43 41 35 37 15 343 24 25 27 31 32 33 29 29
167 167 170 151 135 113 108 100 89 84 94 82 86 77 76 82 70 63 58 43 43 56 49 47 34 26 27 41 27 24 35 43 40 36 5 29 36 38 46 50 52 48 37
172 176 169 157 139 119 109 112 105 102 97 96 96 92 91 84 77 73 72 57 50 39 52 43 43 22 33 23 48 33 23 36 31 30 3 37 38 42 45 44 44 40 36
177 173 174 152 146 137 123 118 114 107 107 111 97 94 105 96 97 96 71 64 53 47 47 38 37 28 20 20 21 38 24 32 31 32 15 43 42 45 44 39 37 29 26
180 175 160 159 144 142 138 135 128 118 120 106 103 111 105 104 106 86 77 62 55 57 38 53 49 33 30 10 16 35 33 34 43 36 35 24 45 42 41 33 31 24 19
184 167 165 159 149 142 138 131 129 136 118 107 118 107 105 106 98 101 94 76 64 66 62 51 46 34 34 7 17 24 44 48 53 36 42 42 37 36 32 30 28 21 13
170 174 165 164 155 143 147 132 136 121 114 123 113 117 111 107 107 98 93 84 70 66 66 60 34 38 7 7 334 6 53 63 71 44 52 44 49 40 23 27 18 8 4
176 167 166 154 152 143 135 138 134 131 125 132 119 111 118 115 104 98 97 97 88 73 64 56 51 57 358 352 317 34 51 69 48 65 45 51 48 37 24 17 9 5 1
177 168 158 152 149 145 139 125 113 121 120 122 115 127 125 110 115 109 107 103 83 73 55 57 57 35 4 326 337 40 47 95 54 62 50 69 46 34 28 13 3 351 356
169 165 166 156 161 152 152 147 146 157 142 122 137 129 124 126 121 114 95 83 72 66 57 41 52 33 1 335 349 12 37 78 47 36 49 73 28 29 24 353 347 332 335
175 175 174 172 166 166 162 156 130 135 141 115 136 135 137 125 113 104 97 84 75 76 66 48 42 62 14 360 62 86 20 346 356 24 33 29 32 29 353 343 326 321 320
184 183 177 172 168 167 162 132 117 104 106 113 145 132 141 123 106 106 104 104 96 93 94 83 58 58 60 21 40 80 38 5 338 332 301 285 10 1 337 324 315 320 309
195 180 175 170 169 167 160 160 164 167 160 158 142 128 110 109 109 111 108 111 113 112 96 99 72 59 82 38 34 39 55 100 350 313 311 341 348 333 320 316 311 311 308
179 178 174 169 167 163 166 164 163 154 126 126 122 115 108 105 119 123 122 115 102 93 98 96 82 59 41 56 47 28 34 77 160 221 290 312 305 265 300 286 303 298 294
157 166 168 169 168 161 166 161 159 147 135 137 140 136 127 117 118 121 117 113 109 105 95 88 85 78 79 78 66 74 103 291 257 205 272 302 304 294 300 298 282 282 276